Preview of NWS' New Version of Forecast
This preview is not operational and should not be used for support decisions.

Regional Weather Roundup (RWR)

Issued by Gray - Portland, ME (GYX)

                            
000
ASUS41 KGYX 172005
RWRGYX
WEATHER ROUNDUP FOR MAINE AND NEW HAMPSHIRE
NATIONAL WEATHER SERVICE GRAY ME
400 PM EDT SAT AUG 17 2019

MEZ002-005-006-010-012-015-018-020-021-024-026-027-029-172100-
MAINE
  
CITY           SKY/WX    TMP DP  RH WIND       PRES   REMARKS
PORTLAND       CLOUDY    68  64  87 S10       30.07F                  
SANFORD        CLOUDY    69  67  93 SE6       30.06F                  
BAR HARBOR     CLOUDY    68  62  81 SW13      30.10F                  
WISCASSET      CLOUDY    68  61  78 S5        30.10F                  
ROCKLAND       CLOUDY    66  62  87 SE8       30.10F                  
FRYEBURG       CLOUDY    70  65  84 SE8       30.06F                  
LEWISTONAUBURN CLOUDY    67  65  93 SE6       30.07F                  
AUGUSTA        CLOUDY    67  63  87 S9        30.08F                  
WATERVILLE     CLOUDY    68  63  84 VRB5      30.05F                  
BANGOR         CLOUDY    69  62  78 S10       30.08S                  
GREENVILLE       N/A     62  62 100 VRB3      30.06F                  
MILLINOCKET    CLOUDY    68  63  84 CALM      30.08F                  
HOULTON        PTSUNNY   69  62  78 S8        30.06F                  
PRESQUE ISLE   CLOUDY    68  62  81 SE9       30.07S                  
FRENCHVILLE    CLOUDY    64  61  90 S9        30.05S                  
CARIBOU        CLOUDY    68  61  78 S9        30.05                   
$$

NHZ002-005-008-009-011-012-014-172100-
NEW HAMPSHIRE
  
CITY           SKY/WX    TMP DP  RH WIND       PRES   REMARKS
PORTSMOUTH     CLOUDY    72  67  83 E7        30.03F                  
ROCHESTER      CLOUDY    71  65  81 E5        30.05F                  
NASHUA         PTSUNNY   82  72  71 SE9G16    30.01F                  
MANCHESTER     PTSUNNY   81  69  67 SE12      30.00F                  
CONCORD        PTSUNNY   75  68  78 E6        30.02F                  
LACONIA        CLOUDY    75  68  78 E8        30.03F                  
PLYMOUTH       CLOUDY    71  66  85 CALM      30.02F                  
BERLIN         PTSUNNY   76  64  66 S9        30.02F                  
WHITEFIELD     FAIR      80  61  52 SW8       30.00F                  
JAFFREY        PTSUNNY   81  66  60 S8        30.04F                  
KEENE          FAIR      82  68  62 S12       29.99F                  
LEBANON        PTSUNNY   84  66  54 SE3       29.96F                  
MT WASHINGTON  FOG       54  54 100 W28G38      N/A  VSB 1/4          
$$

VTZ005-007-008-172100-
VERMONT
  
CITY           SKY/WX    TMP DP  RH WIND       PRES   REMARKS
ST JOHNSBURY     N/A     81  66  60 MISG      29.95F                  
MONTPELIER     FAIR      81  65  58 SW5       30.01F                  
BURLINGTON     CLOUDY    83  67  58 S9        29.93                   
$$

MAZ007-012-024-CTZ003-RIZ002-NYZ038-NYZ072-172100-
SOUTHERN NEW ENGLAND AND NY
  
CITY           SKY/WX    TMP DP  RH WIND       PRES   REMARKS
BOSTON         PTSUNNY   73  66  78 E13       30.04F                  
WORCESTER      CLOUDY    77  69  76 S13       30.04F                  
NANTUCKET      FAIR      76  68  76 E8        30.04F                  
PROVIDENCE     PTSUNNY   77  73  87 E5        30.03F                  
HARTFORD       PTSUNNY   85  70  60 S15       29.98F                  
ALBANY         PTSUNNY   85  65  51 S13G21    29.92F                  
NEW YORK CITY  PTSUNNY   83  70  64 NE12      29.96F                  
$$

ANZ081-ANZ082-ANZ150-NHZ014-MEZ023>029-172100-
COASTAL MARINE OBSERVATIONS
  
STATION/POSITION TIME  TEMP    WIND        PRES    WAVE
                       AIR SEA DIR/SP/G            HT/PER
                 (UTC) (F)     (DEG/KT/KT) (MB)    (FT/S)
MATINICUS ROCK   1950   61                 1018.9F
JEFFREYS LEDGE   1938      68                N/A     2/ 8
CASHES LEDGE BUO 1950   65 65  110/  6/  6 1019.0    2/ 8
GEORGES BANK BUO 1950   72 70  110/  8/  8 1019.0R   3/ 7
$$

.............KEY..............
   WCI - WIND CHILL
   TC  - TEMPERATURE IN CELSIUS
   VSB - VISIBILITY IN MILES
   HX  - HEAT INDEX
   FAIR- INDICATES FEW OR NO CLOUDS BELOW 12,000 FT, WITH NO 
         SIGNIFICANT WEATHER AND/OR OBSTRUCTIONS TO VISIBILITY.